User: anonymous   Login
Location: Ariel
(45.9570°N, 122.5700°W)
Time: 16:17:26
(UTC-07:00)
Language:

Transit 4A - Orbit

View from above orbital plane
View from above orbital plane
View from above satellite
View from above satellite

Ground track
Ground track

The orbit data is extracted from the following two-line orbital elements,

1   116U 61015A   20217.04484544 -.00000046  00000-0  23463-4 0  9999
2   116  66.8100  91.8778 0078729 330.8690  28.8008 13.91773383998921
Epoch (UTC): 04 August 2020 01:04:34
Eccentricity: 0.0078729
inclination: 66.8100°
perigee height: 865 km
apogee height: 980 km
right ascension of ascending node: 91.8778°
argument of perigee: 330.8690°
revolutions per day: 13.91773383
mean anomaly at epoch: 28.8008°
orbit number at epoch: 99892

The dashed part of the orbit path shows where the satellite is in the earth's shadow,  

DLR